User: anonymous   Login
Location: Poughquag
(41.6090°N, 73.6820°W)
Time: 05:06:38
(UTC-05:00)
Language:

AIST 2D - Orbit

View from above orbital plane
View from above orbital plane
View from above satellite
View from above satellite

Ground track
Ground track

The orbit data is extracted from the following two-line orbital elements,

1 41465U 16026B   23343.16818186  .00047185  00000-0  35262-3 0  9995
2 41465  96.9648 212.5323 0003086 320.6464  39.4576 15.72576848427318
Epoch (UTC): 09 December 2023 04:02:10
Eccentricity: 0.0003086
inclination: 96.9648°
perigee height: 349 km
apogee height: 353 km
right ascension of ascending node: 212.5323°
argument of perigee: 320.6464°
revolutions per day: 15.72576848
mean anomaly at epoch: 39.4576°
orbit number at epoch: 42731

The dashed part of the orbit path shows where the satellite is in the earth's shadow,  

DLR